Terug naar catalogus

STARLINK-37845

ActiefCommunicatieVLEO
NORAD 100030·PAYLOAD·🇺🇸 United States

Gelanceerd Jul 14, 2026 vanaf Cape Canaveral Space Force Station

Loading…

Volgende Passages (komende 24 uur)

TLE

VersSource: Space-Track

Epoch: Sep 14, 2026, 18:15 UTC

1 A0030U 26161C   26257.76100094  .00024626  00000-0  73733-3 0  9994
2 A0030  53.1617  24.2326 0000808  71.1763 288.9327 15.34410176  9738

Volg STARLINK-37845 in realtime met AllMySat

Download on the App Store